Weather History for KI35 - December, 2011

Change the Weather History Date:

Wednesday, December 28, 2011

  Actual Average (KLOZ) Record (KLOZ)
Temperature  
Mean Temperature 36 °F 36 °F  
Max Temperature 42 °F 45 °F 72 °F (1984)
Min Temperature 30 °F 27 °F 7 °F (1977)
Degree Days  
Heating Degree Days 29 29  
Month to date heating degree days 735  
Since 1 July heating degree days 1565  
Cooling Degree Days 0 0  
Month to date cooling degree days 0  
Moisture  
Dew Point 30 °F    
Average Humidity 84    
Maximum Humidity 100    
Minimum Humidity 49    
Precipitation  
Precipitation 0.00 in 0.12 in 1.64 in (1966)
Month to date precipitation 3.88  
Sea Level Pressure  
Sea Level Pressure 30.02 in    
Wind  
Wind Speed 7 mph ()    
Max Wind Speed 16 mph    
Max Gust Speed 24 mph    
Visibility 9.5 miles    
Events      
T = Trace of Precipitation, MM = Missing Value Source: Averaged Metar Reports

Daily Weather History Graph

Daily Weather History Graph

Search for Another Location

Airport or City:

Trip Planner

Search our weather history database for the weather conditions in past years. The results will help you decide how hot, cold, wet, or windy it might be!

Date:

Astronomy

Dec. 28, 2011 Rise Set
Actual Time 7:45 AM EST 5:24 PM EST
Civil Twilight 7:16 AM EST 5:53 PM EST
Nautical Twilight 6:43 AM EST 6:26 PM EST
Astronomical Twilight 6:12 AM EST 6:57 PM EST
Moon 10:16 AM EST (12/28) 9:53 PM EST (12/28)
Length of Visible Light 10h 37m
Length of Day
9h 39m
Waxing Crescent, 18% of the Moon is Illuminated
Dec 28
Waxing Crescent
Jan 1
First Quarter
Jan 9
Full
Jan 16
Last Quarter
Jan 23
New

Hourly Weather History & Observations

Time (EST) Temp. Windchill Dew Point Humidity Pressure Visibility Wind Dir Wind Speed Gust Speed Precip Events Conditions
12:15 AM 35.6 °F 28.6 °F 33.8 °F 93% 29.87 in 7.0 mi West 9.2 mph 23.0 mph N/A   Overcast
12:35 AM 33.8 °F 26.4 °F 33.8 °F 100% 29.88 in 5.0 mi West 9.2 mph 23.0 mph N/A   Overcast
1:15 AM 33.8 °F 27.7 °F 33.8 °F 100% 29.89 in 7.0 mi WSW 6.9 mph - N/A   Overcast
1:35 AM 33.8 °F 25.3 °F 33.8 °F 100% 29.89 in 7.0 mi West 11.5 mph 16.1 mph N/A   Overcast
1:55 AM 33.8 °F 24.8 °F 33.8 °F 100% 29.90 in 5.0 mi West 12.7 mph 17.3 mph N/A   Overcast
2:15 AM 33.8 °F 24.3 °F 33.8 °F 100% 29.91 in 7.0 mi West 13.8 mph 24.2 mph N/A   Overcast
2:35 AM 33.8 °F 23.5 °F 33.8 °F 100% 29.92 in 10.0 mi WNW 16.1 mph 24.2 mph N/A   Overcast
2:55 AM 33.8 °F 23.9 °F 33.8 °F 100% 29.93 in 7.0 mi West 15.0 mph 23.0 mph N/A   Overcast
3:15 AM 33.8 °F 26.4 °F 33.8 °F 100% 29.94 in 4.0 mi West 9.2 mph 20.7 mph N/A   Overcast
3:35 AM 33.8 °F 25.3 °F 33.8 °F 100% 29.95 in 10.0 mi WNW 11.5 mph 17.3 mph N/A   Overcast
3:55 AM 33.8 °F 27.7 °F 33.8 °F 100% 29.95 in 7.0 mi West 6.9 mph - N/A   Overcast
4:15 AM 33.8 °F 25.8 °F 33.8 °F 100% 29.96 in 10.0 mi West 10.4 mph 17.3 mph N/A   Overcast
4:35 AM 33.8 °F 27.7 °F 33.8 °F 100% 29.96 in 10.0 mi West 6.9 mph - N/A   Overcast
4:55 AM 33.8 °F 25.8 °F 32.0 °F 93% 29.96 in 10.0 mi West 10.4 mph 17.3 mph N/A   Overcast
5:15 AM 33.8 °F 28.6 °F 32.0 °F 93% 29.96 in 10.0 mi WSW 5.8 mph - N/A   Overcast
5:35 AM 33.8 °F 27.0 °F 32.0 °F 93% 29.97 in 10.0 mi WSW 8.1 mph - N/A   Overcast
5:55 AM 33.8 °F 27.0 °F 32.0 °F 93% 29.99 in 10.0 mi West 8.1 mph - N/A   Overcast
6:15 AM 33.8 °F 27.7 °F 32.0 °F 93% 29.99 in 10.0 mi West 6.9 mph - N/A   Overcast
6:35 AM 33.8 °F 25.3 °F 32.0 °F 93% 30.01 in 10.0 mi West 11.5 mph 18.4 mph N/A   Overcast
6:55 AM 33.8 °F 28.6 °F 32.0 °F 93% 30.01 in 10.0 mi West 5.8 mph - N/A   Overcast
7:15 AM 33.8 °F 25.8 °F 30.2 °F 87% 30.03 in 10.0 mi West 10.4 mph - N/A   Overcast
7:35 AM 33.8 °F 26.4 °F 30.2 °F 87% 30.03 in 10.0 mi West 9.2 mph - N/A   Overcast
7:55 AM 33.8 °F 25.8 °F 30.2 °F 87% 30.04 in 10.0 mi West 10.4 mph - N/A   Overcast
8:15 AM 33.8 °F 27.7 °F 30.2 °F 87% 30.05 in 10.0 mi West 6.9 mph - N/A   Overcast
8:35 AM 33.8 °F 27.7 °F 30.2 °F 87% 30.05 in 10.0 mi West 6.9 mph - N/A   Overcast
8:55 AM 33.8 °F 29.6 °F 30.2 °F 87% 30.06 in 10.0 mi SW 4.6 mph - N/A   Overcast
9:15 AM 33.8 °F 28.6 °F 30.2 °F 87% 30.06 in 10.0 mi West 5.8 mph - N/A   Overcast
9:35 AM 33.8 °F - 30.2 °F 87% 30.07 in 10.0 mi Calm Calm - N/A   Overcast
9:55 AM 35.6 °F 31.7 °F 30.2 °F 81% 30.07 in 10.0 mi SW 4.6 mph - N/A   Overcast
10:15 AM 35.6 °F 29.2 °F 30.2 °F 81% 30.08 in 10.0 mi West 8.1 mph - N/A   Overcast
10:35 AM 37.4 °F 31.4 °F 28.4 °F 70% 30.08 in 10.0 mi WSW 8.1 mph - N/A   Mostly Cloudy
10:55 AM 37.4 °F 31.4 °F 30.2 °F 75% 30.08 in 10.0 mi West 8.1 mph - N/A   Mostly Cloudy
11:15 AM 35.6 °F 31.7 °F 28.4 °F 75% 30.07 in 10.0 mi WNW 4.6 mph - N/A   Overcast
11:35 AM 37.4 °F 33.8 °F 30.2 °F 75% 30.06 in 10.0 mi NW 4.6 mph - N/A   Overcast
11:55 AM 39.2 °F 34.2 °F 30.2 °F 70% 30.05 in 10.0 mi West 6.9 mph - N/A   Mostly Cloudy
12:15 PM 37.4 °F 32.8 °F 28.4 °F 70% 30.03 in 10.0 mi West 5.8 mph - N/A   Scattered Clouds
12:35 PM 37.4 °F 31.4 °F 28.4 °F 70% 30.03 in 10.0 mi West 8.1 mph - N/A   Clear
1:15 PM 41.0 °F 39.0 °F 28.4 °F 61% 30.01 in 10.0 mi West 3.5 mph - N/A   Scattered Clouds
1:35 PM 42.8 °F 38.6 °F 28.4 °F 57% 30.01 in 10.0 mi WSW 6.9 mph - N/A   Clear
1:55 PM 42.8 °F 37.5 °F 28.4 °F 57% 30.01 in 10.0 mi WNW 9.2 mph - N/A   Clear
2:15 PM 42.8 °F - 28.4 °F 57% 30.01 in 10.0 mi Calm Calm - N/A   Clear
2:35 PM 42.8 °F 40.1 °F 26.6 °F 53% 30.01 in 10.0 mi WSW 4.6 mph - N/A   Clear
2:55 PM 42.8 °F 40.1 °F 28.4 °F 57% 30.02 in 10.0 mi SW 4.6 mph - N/A   Clear
3:15 PM 42.8 °F 41.1 °F 26.6 °F 53% 30.01 in 10.0 mi West 3.5 mph - N/A   Clear
3:35 PM 42.8 °F 39.3 °F 26.6 °F 53% 30.02 in 10.0 mi WSW 5.8 mph - N/A   Clear
4:35 PM 42.8 °F 41.1 °F 24.8 °F 49% 30.03 in 10.0 mi WSW 3.5 mph - N/A   Clear
5:15 PM 39.2 °F 35.9 °F 26.6 °F 61% 30.05 in 10.0 mi West 4.6 mph - N/A   Clear
5:35 PM 37.4 °F 34.9 °F 26.6 °F 65% 30.05 in 10.0 mi West 3.5 mph - N/A   Clear
5:55 PM 37.4 °F 34.9 °F 26.6 °F 65% 30.05 in 10.0 mi West 3.5 mph - N/A   Clear
6:15 PM 35.6 °F 31.7 °F 28.4 °F 75% 30.07 in 10.0 mi WNW 4.6 mph - N/A   Clear
6:35 PM 35.6 °F - 26.6 °F 70% 30.07 in 10.0 mi Calm Calm - N/A   Clear
6:55 PM 35.6 °F - 28.4 °F 75% 30.07 in 10.0 mi Calm Calm - N/A   Clear
7:15 PM 33.8 °F - 28.4 °F 81% 30.07 in 10.0 mi Calm Calm - N/A   Clear
7:35 PM 33.8 °F - 28.4 °F 81% 30.07 in 10.0 mi Calm Calm - N/A   Clear
7:55 PM 32.0 °F 28.7 °F 28.4 °F 87% 30.06 in 10.0 mi ESE 3.5 mph - N/A   Clear
8:35 PM 32.0 °F - 30.2 °F 93% 30.06 in 10.0 mi Calm Calm - N/A   Clear
8:55 PM 32.0 °F - 30.2 °F 93% 30.06 in 10.0 mi Calm Calm - N/A   Clear
9:15 PM 32.0 °F - 30.2 °F 93% 30.06 in 10.0 mi Calm Calm - N/A   Clear
9:35 PM 32.0 °F - 32.0 °F 100% 30.06 in 10.0 mi Calm Calm - N/A   Clear
9:55 PM 32.0 °F - 30.2 °F 93% 30.06 in 10.0 mi Calm Calm - N/A   Clear
10:15 PM 32.0 °F - 32.0 °F 100% 30.06 in 10.0 mi Calm Calm - N/A   Clear
10:35 PM 32.0 °F - 32.0 °F 100% 30.06 in 10.0 mi Calm Calm - N/A   Clear
10:55 PM 32.0 °F - 30.2 °F 93% 30.06 in 10.0 mi Calm Calm - N/A   Clear
11:15 PM 30.2 °F - 30.2 °F 100% 30.06 in 10.0 mi Calm Calm - N/A   Clear
11:35 PM 30.2 °F - 30.2 °F 100% 30.05 in 10.0 mi Calm Calm - N/A   Clear
11:55 PM 30.2 °F - 30.2 °F 100% 30.05 in 10.0 mi North - - N/A   Clear